Home   Weather   Winterthur   Past weeks

Flag for Switzerland Past Weather in Winterthur, Switzerland — Yesterday and Last 2 Weeks

Now
28 °F

Ice fog.


Feels Like: 28 °F
Forecast: 20 / 42 °F
Wind: 2 mph from Northwest

Location: Zurich-Kloten

Current Time: Dec 5, 2016 at 9:52:02 pm

Latest Report: Dec 5, 2016 at 9:20 pm


Visibility: 2 mi

Pressure: 30.39 "Hg

Humidity: 100%

Dew Point: 28 °F

Location of WinterthurLocation

Past Weather in Winterthur — Graph

°F

Winterthur Temperature Yesterday

Maximum temperature yesterday: 39 °F (at 1:50 pm)
Minimum temperature yesterday: 27 °F (at 10:20 pm)
Average temperature yesterday: 33 °F

High & Low Weather Summary for the Past Weeks

 TemperatureHumidityPressure
High54 °F (Nov 22, 1:20 pm)100% (Nov 20, 10:20 pm)30.57 "Hg (Nov 20, 10:20 pm)
Low19 °F (Nov 30, 3:50 am)45% (Nov 28, 1:50 pm)29.59 "Hg (Nov 21, 11:50 am)
Average37 °F85%30.12 "Hg
* Reported Nov 20 8:20 pm — Dec 5 8:50 pm, Winterthur, Weather by CustomWeather, © 2016

Note: Actual official high and low records may vary slightly from our data, if they occured in-between our weather recording intervals... More about our weather records

Advertising

Winterthur Weather History for the Previous 24 Hours

Scroll right to see more
 ConditionsComfort  
Time TempWeatherWind HumidityBarometerVisibility
8:50 pm
Mon, Dec 5
30 °FIce fog.2 mph93%30.39 "Hg2 mi
8:20 pm30 °FIce fog.1 mph93%30.39 "Hg3 mi
7:50 pm30 °FIce fog.2 mph93%30.36 "Hg3 mi
7:20 pm30 °FIce fog.2 mph100%30.36 "Hg3 mi
6:50 pm32 °FIce fog.2 mph87%30.36 "Hg3 mi
6:20 pm32 °FIce fog.2 mph87%30.36 "Hg3 mi
5:50 pm30 °FIce fog.3 mph93%30.36 "Hg3 mi
5:20 pm32 °FIce fog.5 mph87%30.36 "Hg3 mi
4:50 pm32 °FIce fog.3 mph87%30.36 "Hg3 mi
4:20 pm32 °FIce fog.5 mph87%30.36 "Hg3 mi
3:50 pm34 °FPassing clouds.3 mph87%30.33 "Hg4 mi
3:20 pm34 °FPassing clouds.3 mph87%30.33 "Hg4 mi
2:50 pm34 °FPassing clouds.1 mph81%30.33 "Hg4 mi
2:20 pm34 °FScattered clouds.2 mph81%30.33 "Hg4 mi
1:50 pm34 °FPartly sunny.5 mph81%30.33 "Hg4 mi
1:20 pm32 °FIce fog.3 mph87%30.36 "Hg3 mi
12:50 pm32 °FIce fog.2 mph93%30.36 "Hg3 mi
12:20 pm32 °FIce fog.5 mph93%30.36 "Hg2 mi
11:50 am30 °FIce fog.3 mph100%30.36 "Hg2 mi
11:20 am30 °FIce fog.1 mph100%30.36 "Hg2 mi
10:50 am30 °FIce fog.2 mph93%30.36 "Hg2 mi
10:20 am30 °FIce fog.2 mph93%30.36 "Hg1 mi
9:50 am30 °FIce fog.2 mph93%30.36 "Hg1 mi
9:20 am28 °FIce fog.1 mph100%30.36 "Hg1 mi
8:50 am28 °FIce fog.3 mph100%30.36 "Hg1 mi
8:20 am28 °FChilly.3 mph100%30.33 "Hg1 mi
7:50 am30 °FChilly.2 mph93%30.33 "Hg2 mi
7:20 am30 °FIce fog.2 mph93%30.33 "Hg2 mi
6:50 am30 °FIce fog.3 mph93%30.33 "Hg2 mi
6:20 am30 °FIce fog.3 mph93%30.33 "Hg2 mi
5:50 am30 °FIce fog.3 mph93%30.33 "Hg2 mi
5:20 am30 °FIce fog.3 mph100%30.33 "Hg2 mi
4:50 am30 °FIce fog.2 mph93%30.33 "Hg2 mi
4:20 am30 °FIce fog.3 mph93%30.33 "Hg2 mi
3:50 am30 °FIce fog.1 mph93%30.33 "Hg2 mi
3:20 am30 °FIce fog.3 mph93%30.33 "Hg2 mi
2:50 am30 °FIce fog.3 mph93%30.33 "Hg2 mi
2:20 am32 °FIce fog.2 mph93%30.33 "Hg2 mi
1:50 am32 °FIce fog.1 mph87%30.33 "Hg2 mi
12:50 am30 °FIce fog.1 mph93%30.33 "Hg2 mi
12:20 am28 °FIce fog.1 mph100%30.33 "Hg2 mi
11:50 pm
Sun, Dec 4
28 °FIce fog.No wind93%30.33 "Hg2 mi
11:20 pm28 °FIce fog.2 mph93%30.33 "Hg2 mi
10:50 pm28 °FIce fog.3 mph100%30.30 "Hg2 mi
10:20 pm27 °FIce fog.3 mph93%30.30 "Hg2 mi
9:50 pm28 °FIce fog.3 mph93%30.30 "Hg3 mi
9:20 pm28 °FIce fog.5 mph93%30.30 "Hg3 mi
Weather by CustomWeather, © 2016

See weather overviewHow to use our weather pages